| time (UTC) | temp C | wind direction | speed KPH | gust KPH | rain 1hr cm | rain 24hr cm | rain mn cm | humidity % | barometer mb |
| 20260503183054 | 13 | 187 | 12.9 | 16.1 | 0.00 | 0.00 | 0.00 | 42 | 1012.6 |
| 20260503182050 | 14 | 170 | 16.1 | 22.5 | 0.00 | 0.00 | 0.00 | 41 | 1012.5 |
| 20260503181049 | 14 | 222 | 17.7 | 22.5 | 0.00 | 0.00 | 0.00 | 41 | 1012.7 |
| 20260503180044 | 13 | 214 | 22.5 | 33.8 | 0.00 | 0.00 | 0.00 | 44 | 1013.2 |
| 20260503175044 | 13 | 211 | 17.7 | 25.7 | 0.00 | 0.00 | 0.00 | 55 | 1012.9 |
| 20260503174043 | 13 | 211 | 17.7 | 25.7 | 0.00 | 0.00 | 0.00 | 55 | 1013.2 |
| 20260503173041 | 13 | 210 | 35.4 | 40.2 | 0.00 | 0.00 | 0.00 | 58 | 1013.5 |
| 20260503172041 | 12 | 192 | 9.7 | 17.7 | 0.00 | 0.00 | 0.00 | 58 | 1013.7 |
| 20260503171041 | 12 | 192 | 29.0 | 35.4 | 0.00 | 0.00 | 0.00 | 57 | 1013.7 |
| 20260503131007 | 5 | 230 | 4.8 | 9.7 | 0.00 | 0.00 | 0.00 | 63 | 1016.7 |
| 20260503080849 | -17 | 0.0 | 0.0 | 0.00 | 0.00 | 0.00 | 1016.8 | ||
| 20260503072840 | 2 | 201 | 3.2 | 4.8 | 0.00 | 0.00 | 0.00 | 82 | 1016.8 |
| 20260503071839 | 2 | 201 | 3.2 | 4.8 | 0.00 | 0.00 | 0.00 | 82 | 1016.8 |
| 20260503070838 | 2 | 201 | 1.6 | 3.2 | 0.00 | 0.00 | 0.00 | 81 | 1017.0 |
| 20260503054820 | 2 | 196 | 1.6 | 3.2 | 0.00 | 0.00 | 0.00 | 73 | 1017.7 |
| 20260503053819 | 2 | 201 | 4.8 | 12.9 | 0.00 | 0.00 | 0.00 | 72 | 1017.8 |
| 20260503052819 | 2 | 193 | 1.6 | 3.2 | 0.00 | 0.00 | 0.00 | 70 | 1017.8 |
| 20260503051818 | 2 | 217 | 1.6 | 3.2 | 0.00 | 0.00 | 0.00 | 68 | 1017.8 |
| 20260503050818 | 2 | 226 | 3.2 | 3.2 | 0.00 | 0.00 | 0.00 | 65 | 1017.9 |
| 20260503045817 | 2 | 222 | 4.8 | 4.8 | 0.00 | 0.00 | 0.00 | 62 | 1017.8 |
| 20260503044817 | 2 | 210 | 4.8 | 9.7 | 0.00 | 0.00 | 0.00 | 58 | 1018.1 |
| 20260503043816 | 2 | 195 | 3.2 | 3.2 | 0.00 | 0.00 | 0.00 | 56 | 1018.0 |
| 20260503042815 | 2 | 181 | 3.2 | 8.0 | 0.00 | 0.00 | 0.00 | 55 | 1018.1 |
| 20260503041814 | 2 | 226 | 0.0 | 1.6 | 0.00 | 0.00 | 0.00 | 53 | 1018.0 |
| 20260503040809 | 2 | 207 | 0.0 | 1.6 | 0.00 | 0.00 | 0.00 | 51 | 1018.4 |
| 20260503035808 | 2 | 197 | 0.0 | 0.0 | 0.00 | 0.00 | 0.00 | 51 | 1018.3 |
| 20260503034808 | 3 | 202 | 0.0 | 0.0 | 0.00 | 0.00 | 0.00 | 49 | 1018.0 |
| 20260503033808 | 3 | 217 | 0.0 | 0.0 | 0.00 | 0.00 | 0.00 | 49 | 1018.4 |
| 20260503032804 | 3 | 215 | 0.0 | 0.0 | 0.00 | 0.00 | 0.00 | 48 | 1018.4 |
| 20260503031759 | 3 | 245 | 0.0 | 0.0 | 0.00 | 0.00 | 0.00 | 48 | 1018.4 |
| 20260503030759 | 3 | 233 | 0.0 | 1.6 | 0.00 | 0.00 | 0.00 | 48 | 1018.3 |
| 20260503025757 | 3 | 225 | 0.0 | 0.0 | 0.00 | 0.00 | 0.00 | 48 | 1018.3 |
| 20260503024758 | 3 | 224 | 0.0 | 0.0 | 0.00 | 0.00 | 0.00 | 48 | 1018.7 |
| 20260503023757 | 3 | 222 | 0.0 | 0.0 | 0.00 | 0.00 | 0.00 | 48 | 1018.5 |
| 20260503022756 | 3 | 214 | 0.0 | 0.0 | 0.00 | 0.00 | 0.00 | 48 | 1018.7 |
| 20260503021753 | 3 | 230 | 0.0 | 0.0 | 0.00 | 0.00 | 0.00 | 46 | 1018.7 |
| 20260503020753 | 3 | 231 | 0.0 | 0.0 | 0.00 | 0.00 | 0.00 | 46 | 1018.7 |
| 20260503015752 | 3 | 247 | 0.0 | 0.0 | 0.00 | 0.00 | 0.00 | 47 | 1018.6 |
| 20260503014751 | 3 | 143 | 0.0 | 0.0 | 0.00 | 0.00 | 0.00 | 46 | 1018.7 |
| 20260503013746 | 3 | 132 | 0.0 | 0.0 | 0.00 | 0.00 | 0.00 | 46 | 1018.5 |
| 20260503012746 | 3 | 134 | 1.6 | 1.6 | 0.00 | 0.00 | 0.00 | 46 | 1018.5 |
| 20260503011746 | 3 | 137 | 1.6 | 1.6 | 0.00 | 0.00 | 0.00 | 46 | 1018.4 |
| 20260503010745 | 4 | 221 | 1.6 | 1.6 | 0.00 | 0.00 | 0.00 | 46 | 1018.3 |
| 20260503005740 | 4 | 245 | 1.6 | 1.6 | 0.00 | 0.00 | 0.00 | 45 | 1018.3 |
| 20260503004739 | 4 | 264 | 0.0 | 0.0 | 0.00 | 0.00 | 0.00 | 46 | 1018.3 |
| 20260503003734 | 4 | 294 | 0.0 | 1.6 | 0.00 | 0.00 | 0.00 | 45 | 1018.0 |
| 20260503002733 | 5 | 276 | 1.6 | 1.6 | 0.00 | 0.00 | 0.00 | 43 | 1018.0 |
| 20260503001732 | 5 | 311 | 4.8 | 8.0 | 0.00 | 0.00 | 0.00 | 40 | 1018.1 |
| 20260503000727 | 5 | 323 | 4.8 | 8.0 | 0.00 | 0.00 | 0.00 | 39 | 1018.0 |
| 20260502235726 | 5 | 329 | 4.8 | 4.8 | 0.00 | 0.00 | 0.00 | 39 | 1018.1 |
| 20260502234726 | 6 | 341 | 4.8 | 9.7 | 0.00 | 0.00 | 0.00 | 38 | 1018.0 |
| 20260502233726 | 6 | 312 | 6.4 | 9.7 | 0.00 | 0.00 | 0.00 | 38 | 1017.8 |
| 20260502232724 | 6 | 336 | 1.6 | 3.2 | 0.00 | 0.00 | 0.00 | 39 | 1018.0 |
| 20260502231724 | 6 | 327 | 9.7 | 14.5 | 0.00 | 0.00 | 0.00 | 40 | 1018.0 |
| 20260502230721 | 6 | 311 | 12.9 | 14.5 | 0.00 | 0.00 | 0.00 | 41 | 1018.0 |
| 20260502225720 | 6 | 327 | 8.0 | 12.9 | 0.00 | 0.00 | 0.00 | 43 | 1018.0 |
| 20260502224719 | 5 | 298 | 4.8 | 8.0 | 0.00 | 0.00 | 0.00 | 43 | 1018.1 |
| 20260502223714 | 5 | 345 | 3.2 | 3.2 | 0.00 | 0.00 | 0.00 | 45 | 1018.1 |
| 20260502222709 | 5 | 295 | 3.2 | 4.8 | 0.00 | 0.00 | 0.00 | 46 | 1017.9 |
| 20260502221708 | 5 | 331 | 0.0 | 1.6 | 0.00 | 0.00 | 0.00 | 50 | 1018.0 |
| 20260502220706 | 5 | 332 | 1.6 | 3.2 | 0.00 | 0.00 | 0.00 | 51 | 1018.2 |
| 20260502215706 | 5 | 1 | 1.6 | 1.6 | 0.00 | 0.00 | 0.00 | 51 | 1018.3 |
| 20260502214706 | 5 | 11 | 0.0 | 0.0 | 0.00 | 0.00 | 0.00 | 53 | 1018.1 |
| 20260502213706 | 5 | 339 | 4.8 | 8.0 | 0.00 | 0.00 | 0.00 | 56 | 1018.3 |
| 20260502212702 | 5 | 297 | 0.0 | 0.0 | 0.00 | 0.00 | 0.00 | 57 | 1018.1 |
| 20260502211701 | 5 | 334 | 1.6 | 1.6 | 0.00 | 0.00 | 0.00 | 58 | 1018.2 |
| 20260502210701 | 5 | 351 | 1.6 | 3.2 | 0.00 | 0.00 | 0.00 | 59 | 1018.3 |
| 20260502205702 | 5 | 358 | 6.4 | 9.7 | 0.00 | 0.00 | 0.00 | 60 | 1018.3 |
| 20260502204701 | 5 | 296 | 8.0 | 11.3 | 0.00 | 0.00 | 0.00 | 55 | 1018.2 |
| 20260502203656 | 5 | 305 | 8.0 | 14.5 | 0.00 | 0.00 | 0.00 | 54 | 1018.5 |
| 20260502202654 | 5 | 328 | 8.0 | 11.3 | 0.00 | 0.00 | 0.00 | 55 | 1018.4 |
| 20260502201649 | 5 | 307 | 8.0 | 12.9 | 0.00 | 0.00 | 0.00 | 57 | 1018.5 |
| 20260502200647 | 5 | 303 | 12.9 | 17.7 | 0.00 | 0.00 | 0.00 | 60 | 1018.4 |
| 20260502195643 | 5 | 299 | 4.8 | 9.7 | 0.00 | 0.00 | 0.00 | 61 | 1018.7 |
| 20260502194641 | 4 | 332 | 6.4 | 9.7 | 0.00 | 0.00 | 0.00 | 63 | 1018.7 |
| 20260502193640 | 4 | 336 | 0.0 | 3.2 | 0.00 | 0.00 | 0.00 | 66 | 1019.0 |
| 20260502192638 | 3 | 293 | 0.0 | 3.2 | 0.00 | 0.00 | 0.00 | 68 | 1018.9 |
| 20260502191633 | 3 | 335 | 1.6 | 4.8 | 0.00 | 0.00 | 0.00 | 67 | 1019.0 |
| 20260502190628 | 3 | 303 | 3.2 | 4.8 | 0.00 | 0.00 | 0.00 | 66 | 1019.0 |
| 20260502185626 | 3 | 275 | 11.3 | 14.5 | 0.00 | 0.00 | 0.00 | 68 | 1019.3 |
| 20260502184625 | 4 | 325 | 20.9 | 25.7 | 0.00 | 0.00 | 0.00 | 65 | 1019.0 |
| 20260502183623 | 4 | 304 | 8.0 | 11.3 | 0.00 | 0.00 | 0.00 | 61 | 1018.9 |